TimeEST,TemperatureF,Dew PointF,Humidity,Sea Level PressureIn,VisibilityMPH,Wind Direction,Wind SpeedMPH,Gust SpeedMPH,PrecipitationIn,Events,Conditions,WindDirDegrees,DateUTC
12:53 AM,25.0,19.9,81,30.53,10.0,Calm,Calm,-,N/A,,Clear,0,2013-01-11 05:53:00
1:53 AM,25.0,19.9,81,30.51,10.0,Calm,Calm,-,N/A,,Clear,0,2013-01-11 06:53:00
2:53 AM,25.0,19.9,81,30.51,10.0,Calm,Calm,-,N/A,,Clear,0,2013-01-11 07:53:00
3:53 AM,24.1,19.0,81,30.48,10.0,Calm,Calm,-,N/A,,Clear,0,2013-01-11 08:53:00
4:53 AM,25.0,19.9,81,30.45,10.0,Calm,Calm,-,N/A,,Clear,0,2013-01-11 09:53:00
5:53 AM,24.1,19.9,84,30.45,10.0,Calm,Calm,-,N/A,,Clear,0,2013-01-11 10:53:00
6:53 AM,25.0,21.0,85,30.46,10.0,Calm,Calm,-,N/A,,Clear,0,2013-01-11 11:53:00
7:53 AM,27.0,21.9,81,30.48,10.0,Calm,Calm,-,N/A,,Clear,0,2013-01-11 12:53:00
8:53 AM,28.9,23.0,78,30.44,10.0,Calm,Calm,-,N/A,,Clear,0,2013-01-11 13:53:00
9:53 AM,30.9,24.1,76,30.46,10.0,Calm,Calm,-,N/A,,Clear,0,2013-01-11 14:53:00
10:53 AM,33.1,25.0,72,30.43,10.0,Calm,Calm,-,N/A,,Clear,0,2013-01-11 15:53:00
11:53 AM,35.1,25.0,67,30.38,10.0,Calm,Calm,-,N/A,,Overcast,0,2013-01-11 16:53:00
12:53 PM,37.0,25.0,62,30.34,10.0,Calm,Calm,-,N/A,,Overcast,0,2013-01-11 17:53:00
1:53 PM,37.0,28.0,70,30.32,10.0,WSW,5.8,-,0.00,,Overcast,240,2013-01-11 18:53:00
2:53 PM,36.0,30.0,79,30.29,10.0,Calm,Calm,-,0.04,,Overcast,0,2013-01-11 19:53:00
3:53 PM,36.0,30.9,82,30.27,10.0,Calm,Calm,-,0.00,,Overcast,0,2013-01-11 20:53:00
4:53 PM,36.0,32.0,86,30.24,10.0,Calm,Calm,-,N/A,,Overcast,0,2013-01-11 21:53:00
5:07 PM,35.6,33.8,93,30.24,5.0,Calm,Calm,-,0.01,Rain,Light Rain,0,2013-01-11 22:07:00
5:33 PM,35.6,33.8,93,30.23,3.0,Calm,Calm,-,0.05,Rain,Light Rain,0,2013-01-11 22:33:00
5:49 PM,35.6,33.8,93,30.22,2.5,Calm,Calm,-,0.06,Rain,Light Rain,0,2013-01-11 22:49:00
5:53 PM,36.0,33.1,89,30.22,2.0,Calm,Calm,-,0.06,Rain,Light Rain,0,2013-01-11 22:53:00
6:17 PM,35.6,33.8,93,30.21,3.0,Calm,Calm,-,0.02,Rain,Light Rain,0,2013-01-11 23:17:00
6:24 PM,35.6,33.8,93,30.21,1.8,West,3.5,-,0.02,Rain,Light Rain,260,2013-01-11 23:24:00
6:53 PM,34.0,33.1,96,30.21,0.8,WNW,3.5,-,0.03,Rain,Light Rain,290,2013-01-11 23:53:00
7:17 PM,35.6,33.8,93,30.20,1.5,Calm,Calm,-,0.03,Rain,Light Rain,0,2013-01-12 00:17:00
7:34 PM,35.6,33.8,93,30.20,1.5,Calm,Calm,-,0.04,Rain,Light Rain,0,2013-01-12 00:34:00
7:53 PM,35.1,33.1,92,30.19,1.8,Calm,Calm,-,0.06,Rain,Light Rain,0,2013-01-12 00:53:00
8:01 PM,35.6,33.8,93,30.19,1.0,Calm,Calm,-,0.02,Rain,Light Rain,0,2013-01-12 01:01:00
8:03 PM,35.6,33.8,93,30.18,0.8,Calm,Calm,-,0.02,Rain,Light Rain,0,2013-01-12 01:03:00
8:13 PM,35.6,33.8,93,30.18,1.0,Calm,Calm,-,0.03,Rain,Light Rain,0,2013-01-12 01:13:00
8:33 PM,33.8,33.8,100,30.17,0.5,Calm,Calm,-,0.03,Fog-Rain,Light Rain,0,2013-01-12 01:33:00
8:44 PM,33.8,32.0,93,30.16,0.5,Calm,Calm,-,0.03,Fog,Fog,0,2013-01-12 01:44:00
8:53 PM,35.1,33.1,92,30.16,1.2,Calm,Calm,-,0.03,,Overcast,0,2013-01-12 01:53:00
9:10 PM,33.8,33.8,100,30.17,0.8,Calm,Calm,-,N/A,,Overcast,0,2013-01-12 02:10:00
9:23 PM,33.8,32.0,93,30.16,1.2,ESE,3.5,-,N/A,,Overcast,120,2013-01-12 02:23:00
9:41 PM,35.6,33.8,93,30.15,2.5,Calm,Calm,-,N/A,,Overcast,0,2013-01-12 02:41:00
9:53 PM,35.1,33.1,92,30.15,2.0,Calm,Calm,-,N/A,,Overcast,0,2013-01-12 02:53:00
10:00 PM,35.6,33.8,93,30.15,1.8,Calm,Calm,-,N/A,,Overcast,0,2013-01-12 03:00:00
10:25 PM,33.8,32.0,93,30.15,0.8,Calm,Calm,-,0.00,,Overcast,0,2013-01-12 03:25:00
10:45 PM,35.6,33.8,93,30.15,1.8,Calm,Calm,-,0.01,,Overcast,0,2013-01-12 03:45:00
10:53 PM,35.1,33.1,92,30.14,2.0,Calm,Calm,-,0.01,Rain,Light Rain,0,2013-01-12 03:53:00
11:13 PM,35.6,33.8,93,30.14,2.5,NE,5.8,-,0.00,,Overcast,40,2013-01-12 04:13:00
11:53 PM,36.0,34.0,93,30.13,3.0,North,4.6,-,0.02,Rain,Light Rain,360,2013-01-12 04:53:00